Weather History for KMKJ - February, 2013

Change the Weather History Date:

Wednesday, February 27, 2013

  Actual Average (KGEV) Record (KGEV)
Temperature  
Mean Temperature 38 °F -  
Max Temperature 42 °F 48 °F 67 °F (1977)
Min Temperature 35 °F 24 °F 10 °F (1968)
Degree Days  
Heating Degree Days 26    
Moisture  
Dew Point 34 °F    
Average Humidity 85    
Maximum Humidity 100    
Minimum Humidity 68    
Precipitation  
Precipitation 0.03 in - - ()
Sea Level Pressure  
Sea Level Pressure 29.71 in    
Wind  
Wind Speed 14 mph (WSW)    
Max Wind Speed 26 mph    
Max Gust Speed 34 mph    
Visibility 9 miles    
Events Rain , Snow    
Averages and records for this station are not official NWS values.
T = Trace of Precipitation, MM = Missing Value Source: NWS Daily Summary

Daily Weather History Graph

Daily Weather History Graph

Search for Another Location

Airport or City:

Trip Planner

Search our weather history database for the weather conditions in past years. The results will help you decide how hot, cold, wet, or windy it might be!

Date:

Astronomy

Feb. 27, 2013 Rise Set
Actual Time 6:58 AM EST 6:18 PM EST
Civil Twilight 6:32 AM EST 6:44 PM EST
Nautical Twilight 6:02 AM EST 7:14 PM EST
Astronomical Twilight 5:32 AM EST 7:44 PM EST
Moon 8:32 PM EST (2/27) 7:37 AM EST (2/27)
Length of Visible Light 12h 11m
Length of Day
11h 19m
Waning Gibbous, 96% of the Moon is Illuminated
Feb 27
Waning Gibbous
Mar 4
Last Quarter
Mar 11
New
Mar 19
First Quarter
Mar 27
Full

Hourly Weather History & Observations

Time (EST) Temp. Windchill Dew Point Humidity Pressure Visibility Wind Dir Wind Speed Gust Speed Precip Events Conditions
12:15 AM 41.0 °F 36.4 °F 40.5 °F 98% 29.62 in 10.0 mi WSW 6.9 mph - N/A   Overcast
12:35 AM 41.2 °F 35.0 °F 40.1 °F 96% 29.61 in 10.0 mi WSW 10.4 mph - N/A   Overcast
12:55 AM 41.2 °F 35.0 °F 39.9 °F 95% 29.62 in 10.0 mi WSW 10.4 mph - N/A   Overcast
1:15 AM 41.0 °F 33.9 °F 39.2 °F 93% 29.63 in 10.0 mi WSW 12.7 mph 19.6 mph N/A   Overcast
1:35 AM 40.6 °F 33.8 °F 38.5 °F 92% 29.63 in 10.0 mi WSW 11.5 mph 21.9 mph N/A   Overcast
1:55 AM 40.1 °F 32.7 °F 39.2 °F 97% 29.63 in 10.0 mi WSW 12.7 mph 17.3 mph N/A   Overcast
2:15 AM 39.4 °F 32.3 °F 39.2 °F 99% 29.63 in 10.0 mi WSW 11.5 mph - N/A   Overcast
2:35 AM 39.4 °F 31.1 °F 38.5 °F 97% 29.62 in 10.0 mi West 15.0 mph 20.7 mph N/A   Overcast
2:55 AM 39.2 °F 30.8 °F 38.7 °F 98% 29.61 in 10.0 mi West 15.0 mph - N/A   Overcast
3:15 AM 39.2 °F 32.0 °F 38.3 °F 97% 29.61 in 10.0 mi West 11.5 mph - N/A   Overcast
3:35 AM 39.4 °F 30.7 °F 37.0 °F 91% 29.61 in 10.0 mi West 16.1 mph 20.7 mph N/A   Overcast
3:55 AM 39.4 °F 30.7 °F 36.5 °F 89% 29.61 in 10.0 mi West 16.1 mph 20.7 mph N/A   Overcast
4:15 AM 39.7 °F 30.9 °F 34.9 °F 83% 29.62 in 10.0 mi West 17.3 mph 21.9 mph N/A   Overcast
4:35 AM 39.2 °F 30.5 °F 34.5 °F 83% 29.63 in 10.0 mi West 16.1 mph 23.0 mph N/A   Overcast
4:55 AM 38.8 °F 28.3 °F 32.9 °F 79% 29.63 in 10.0 mi West 23.0 mph 33.4 mph N/A   Overcast
5:35 AM 37.8 °F 26.8 °F 33.3 °F 84% 29.65 in 7.0 mi West 23.0 mph 33.4 mph N/A   Overcast
5:55 AM 37.4 °F 27.5 °F 33.1 °F 84% 29.66 in 10.0 mi West 18.4 mph 27.6 mph N/A   Overcast
6:15 AM 37.4 °F 26.6 °F 32.0 °F 81% 29.66 in 10.0 mi West 21.9 mph 26.5 mph N/A   Overcast
6:35 AM 37.0 °F 25.1 °F 32.5 °F 84% 29.66 in 10.0 mi West 26.5 mph 34.5 mph N/A   Overcast
6:55 AM 36.9 °F 25.6 °F 32.5 °F 84% 29.67 in 10.0 mi WSW 23.0 mph 32.2 mph N/A   Mostly Cloudy
7:15 AM 36.7 °F 25.4 °F 32.4 °F 84% 29.68 in 10.0 mi West 23.0 mph 31.1 mph N/A   Mostly Cloudy
7:35 AM 37.0 °F 26.7 °F 33.1 °F 86% 29.69 in 10.0 mi West 19.6 mph 28.8 mph N/A   Overcast
7:55 AM 37.4 °F 27.5 °F 33.1 °F 84% 29.69 in 10.0 mi West 18.4 mph 29.9 mph N/A   Overcast
8:15 AM 37.6 °F 27.1 °F 33.6 °F 86% 29.70 in 10.0 mi West 20.7 mph 26.5 mph N/A   Overcast
8:35 AM 37.9 °F 27.6 °F 33.6 °F 84% 29.71 in 10.0 mi West 20.7 mph 28.8 mph N/A   Overcast
8:55 AM 37.9 °F 27.6 °F 33.4 °F 84% 29.72 in 10.0 mi West 20.7 mph 28.8 mph N/A   Overcast
9:15 AM 37.9 °F 28.2 °F 33.4 °F 84% 29.73 in 10.0 mi WSW 18.4 mph 24.2 mph N/A   Overcast
9:35 AM 38.3 °F 28.1 °F 33.8 °F 84% 29.73 in 10.0 mi West 20.7 mph 25.3 mph N/A   Overcast
10:15 AM 38.3 °F 27.8 °F 33.4 °F 83% 29.74 in 10.0 mi West 21.9 mph 27.6 mph N/A   Overcast
10:35 AM 38.3 °F 28.4 °F 32.9 °F 81% 29.75 in 10.0 mi WSW 19.6 mph 27.6 mph N/A   Overcast
10:55 AM 38.3 °F 29.7 °F 33.1 °F 81% 29.76 in 10.0 mi WSW 15.0 mph 20.7 mph N/A   Overcast
11:15 AM 38.3 °F 29.3 °F 33.3 °F 82% 29.76 in 10.0 mi West 16.1 mph 23.0 mph N/A   Overcast
11:35 AM 38.3 °F 29.3 °F 32.9 °F 81% 29.77 in 10.0 mi West 16.1 mph 21.9 mph N/A   Overcast
11:55 AM 38.3 °F 29.3 °F 32.5 °F 80% 29.77 in 10.0 mi West 16.1 mph 25.3 mph N/A   Overcast
12:15 PM 38.3 °F 29.7 °F 32.9 °F 81% 29.76 in 10.0 mi WSW 15.0 mph 24.2 mph N/A   Overcast
12:35 PM 38.7 °F 30.9 °F 32.9 °F 80% 29.76 in 10.0 mi WSW 12.7 mph - N/A   Overcast
1:15 PM 38.5 °F 31.1 °F 33.1 °F 81% 29.75 in 10.0 mi WSW 11.5 mph 18.4 mph N/A   Overcast
1:35 PM 38.7 °F 30.5 °F 32.9 °F 80% 29.74 in 10.0 mi West 13.8 mph 21.9 mph N/A   Overcast
1:55 PM 39.6 °F 33.0 °F 33.3 °F 78% 29.74 in 10.0 mi WSW 10.4 mph - N/A   Overcast
2:15 PM 39.2 °F 30.8 °F 33.1 °F 79% 29.74 in 10.0 mi West 15.0 mph 20.7 mph N/A   Overcast
2:35 PM 39.0 °F 30.6 °F 32.9 °F 79% 29.74 in 10.0 mi West 15.0 mph 20.7 mph N/A   Overcast
2:55 PM 41.0 °F 32.8 °F 34.2 °F 77% 29.74 in 10.0 mi West 16.1 mph 20.7 mph N/A   Overcast
3:15 PM 40.6 °F 33.4 °F 33.6 °F 76% 29.74 in 10.0 mi West 12.7 mph - N/A   Overcast
3:35 PM 40.6 °F 33.8 °F 33.6 °F 76% 29.74 in 10.0 mi WSW 11.5 mph 23.0 mph N/A   Overcast
3:55 PM 41.0 °F 33.9 °F 32.5 °F 72% 29.73 in 10.0 mi WSW 12.7 mph 24.2 mph N/A   Overcast
4:15 PM 42.1 °F 33.9 °F 32.7 °F 69% 29.73 in 10.0 mi West 17.3 mph 21.9 mph N/A   Overcast
4:35 PM 42.1 °F 34.2 °F 32.2 °F 68% 29.72 in 10.0 mi WSW 16.1 mph 20.7 mph N/A   Mostly Cloudy
4:55 PM 41.2 °F 34.5 °F 32.4 °F 71% 29.72 in 10.0 mi WSW 11.5 mph 18.4 mph N/A   Mostly Cloudy
5:15 PM 41.4 °F 34.0 °F 32.4 °F 70% 29.72 in 10.0 mi West 13.8 mph - N/A   Scattered Clouds
5:35 PM 41.0 °F 32.5 °F 32.4 °F 71% 29.72 in 10.0 mi West 17.3 mph - N/A   Mostly Cloudy
5:55 PM 40.6 °F 32.7 °F 32.2 °F 72% 29.72 in 10.0 mi West 15.0 mph 19.6 mph N/A   Scattered Clouds
6:15 PM 40.3 °F 33.4 °F 32.2 °F 73% 29.73 in 10.0 mi West 11.5 mph 19.6 mph N/A   Mostly Cloudy
6:35 PM 39.2 °F 33.0 °F 32.0 °F 75% 29.74 in 10.0 mi West 9.2 mph - N/A   Overcast
6:55 PM 39.2 °F 33.0 °F 32.2 °F 76% 29.75 in 10.0 mi WSW 9.2 mph - N/A   Overcast
7:15 PM 39.2 °F 33.0 °F 32.2 °F 76% 29.75 in 10.0 mi WSW 9.2 mph - N/A   Overcast
7:35 PM 39.4 °F 31.4 °F 32.5 °F 76% 29.75 in 10.0 mi West 13.8 mph - N/A   Overcast
7:55 PM 37.8 °F 29.4 °F 33.6 °F 85% 29.76 in 2.0 mi West 13.8 mph 20.7 mph N/A Snow Light Snow
8:15 PM 36.1 °F 28.2 °F 36.1 °F 100% 29.76 in 1.0 mi WSW 11.5 mph - 0.01 in Snow Light Snow
8:35 PM 35.8 °F 28.8 °F 35.8 °F 100% 29.75 in 2.0 mi WSW 9.2 mph - 0.01 in Snow Light Snow
9:15 PM 35.8 °F 27.3 °F 35.8 °F 100% 29.75 in 1.2 mi WSW 12.7 mph - N/A Snow Light Snow
9:35 PM 35.8 °F 27.3 °F 35.8 °F 100% 29.75 in 0.8 mi WSW 12.7 mph - 0.01 in Snow Light Snow
9:55 PM 36.0 °F 26.7 °F 36.0 °F 100% 29.75 in 7.0 mi WSW 15.0 mph 20.7 mph 0.02 in   Overcast
10:15 PM 36.1 °F 27.7 °F 36.1 °F 100% 29.75 in 10.0 mi WSW 12.7 mph - N/A   Overcast
10:35 PM 36.1 °F 26.9 °F 36.1 °F 100% 29.74 in 10.0 mi West 15.0 mph 18.4 mph N/A Rain Light Rain
10:55 PM 36.5 °F 28.2 °F 36.0 °F 98% 29.74 in 10.0 mi WSW 12.7 mph 20.7 mph N/A Snow Light Snow
11:15 PM 36.5 °F 28.2 °F 34.7 °F 93% 29.73 in 10.0 mi West 12.7 mph - N/A Snow Light Snow
11:35 PM 36.1 °F 25.9 °F 34.9 °F 95% 29.72 in 5.0 mi WSW 18.4 mph 26.5 mph N/A Snow Light Snow
11:55 PM 36.0 °F 27.1 °F 34.3 °F 94% 29.72 in 5.0 mi West 13.8 mph 23.0 mph N/A Snow Light Snow